Weather observations for the past three days for
Livingston, Mission Field Airport
Metric (Imperial)
Date Time (mdt) Wind (kph) Vis. (km) Weather Sky Cond. Temperature (ºC) Relative Humidity Wind Chill (°C) Heat Index (°C) Pressure Precipitation (cm)
Air Dwpt 6 hour altimeter (cm) sea level (mb) 1 hr 3 hr 6 hr
Max. Min.
24 23:53 NW 11 16.09 Overcast BKN075 OVC090 8.9 4.4 15 8.3 74% 7 75.59 1005.6 0.05
24 22:53 NW 7 16.09 Overcast BKN075 OVC090 9.4 4.4 71% 9 75.62 1006.3
24 21:53 SW 11 16.09 Overcast OVC085 10.6 2.2 56% 75.59 1006.3
24 20:53 SW 9 16.09 A Few Clouds FEW090 8.9 3.3 68% 8 75.51 1005.6 0.05
24 19:53 W 13 16.09 Mostly Cloudy BKN100 13.3 3.9 53% 75.51 1005.8 0.03
24 18:53 Calm 16.09 Mostly Cloudy BKN090 BKN110 13.9 3.9 51% 75.54 1006.8 0.03
24 17:53 NW 24 G 39 16.09 A Few Clouds FEW110 13.9 3.3 17.2 11.7 49% 75.54 1006.6 0.05
24 16:53 W 37 G 50 16.09 Partly Cloudy and Breezy FEW070 SCT110 14.4 1.7 42% 75.59 1006.8 0.05
24 15:53 W 26 16.09 Mostly Cloudy FEW060 BKN095 13.9 1.1 42% 75.64 1007.4
24 14:53 NW 35 G 50 16.09 Mostly Cloudy and Breezy FEW070 FEW080 BKN100 16.1 0.6 35% 75.64 1007.1
24 13:53 W 33 G 46 16.09 Fair and Breezy CLR 15 0 36% 75.69 1008.3
24 12:53 W 22 G 44 16.09 Mostly Cloudy BKN060 15 1.1 39% 75.72 1008.2
24 11:53 W 33 G 54 16.09 Fair and Breezy CLR 15.6 1.7 15.6 -0.6 39% 75.74 1008.4
24 10:53 W 39 G 54 16.09 Fair and Breezy CLR 12.8 1.1 45% 75.79 1009.2
24 09:53 W 31 G 50 16.09 Fair CLR 10.6 1.1 52% 75.82 1010.1
24 08:53 W 31 G 50 16.09 Fair CLR 9.4 0 52% 6 75.9 1011.0
24 07:53 NW 19 G 50 16.09 Fair CLR 4.4 -1.7 65% 1 75.92 1012.7
24 06:53 W 19 G 37 16.09 Fair CLR 0.6 -2.8 78% -4 75.97 1013.9
24 05:53 NW 28 G 57 16.09 Fair CLR 1.7 -2.2 6.1 0.6 76% -4 75.95 1013.7
24 04:53 NW 22 16.09 Fair CLR 2.2 -1.7 76% -2 76 1014.7
24 03:53 W 35 16.09 Fair and Breezy CLR 5 -1.7 62% 0 76.02 1014.4
24 02:53 W 30 G 37 16.09 Fair CLR 3.3 -1.1 73% -2 76.07 1015.7
24 01:53 NW 13 16.09 Fair CLR 1.7 -0.6 85% -2 76.12 1016.5
24 00:53 W 30 16.09 Fair CLR 5 0 70% 0 76.15 1016.5
23 23:53 W 33 G 48 16.09 Fair and Breezy CLR 5.6 0 6.7 5 68% 1 76.17 1016.7
23 22:53 W 37 G 48 16.09 Fair and Breezy CLR 5.6 -0.6 65% 1 76.2 1017.2
23 21:53 W 17 16.09 Overcast OVC070 6.7 -0.6 60% 4 76.2 1017.1
23 20:53 SW 26 16.09 Overcast OVC070 6.7 0 63% 3 76.2 1017.0
23 19:53 SW 30 16.09 Overcast OVC065 6.1 1.1 71% 2 76.17 1016.9
23 18:53 SW 31 G 46 16.09 Overcast SCT055 OVC065 6.7 1.7 71% 3 76.15 1016.1
23 17:53 W 31 16.09 Overcast OVC045 5.6 1.7 5.6 2.2 76% 1 76.12 1015.8 0.23
23 16:53 SW 33 G 50 16.09 Overcast and Breezy OVC039 4.4 1.7 83% -1 76.1 1015.5
23 15:53 SW 35 G 46 16.09 Overcast and Breezy OVC033 3.9 1.1 82% -1 76.07 1014.6 0.05
23 14:53 SW 28 16.09 Overcast OVC016 2.8 0.6 86% -2 76 1013.9 0.05 0.18
23 13:53 SW 28 16.09 Overcast OVC023 3.3 0.6 83% -2 75.92 1013.0 0.08
23 12:53 SW 19 16.09 Light Rain SCT011 OVC022 3 0 0% -1 75.84 1011.9 0.05
23 11:53 SW 28 6.44 Light Snow Fog/Mist OVC013 2.2 1.1 3.3 1.1 93% -3 75.77 1010.8 0.08 0.46
23 10:53 SW 31 0.80 Snow Fog VV007 1.1 0 92% -5 75.69 1010.0 0.08
23 09:53 SW 24 0.80 Snow Fog VV007 1.1 0 92% -4 75.67 1009.6 0.08
23 08:53 NW 11 2.01 Light Snow Fog/Mist SCT006 OVC009 1.1 0.6 97% -2 75.62 1008.6 0.08 0.23
23 07:53 W 13 4.83 Light Snow Fog/Mist OVC011 1.1 0.6 97% -2 75.59 1007.7 0.08
23 06:53 W 30 14.48 Light Rain OVC019 3.3 1.1 86% -2 75.49 1005.8 0.08
23 05:53 W 37 G 52 11.27 Rain and Breezy OVC015 3.3 1.1 7.2 3.3 86% -2 75.44 1004.8 0.08 0.36
23 04:53 SW 35 G 54 9.66 Light Rain and Breezy FEW014 BKN022 OVC030 3.9 1.1 82% -1 75.41 1004.4 0.05
23 03:53 E 15 16.09 Light Rain BKN004 BKN011 OVC022 6.7 5.6 93% 4 75.36 1003.0 0.1
23 02:53 E 7 16.09 Light Rain OVC006 6.7 5.6 93% 6 75.39 1003.2 0.08 0.13
23 01:53 W 6 11.27 Light Rain OVC016 6.7 5 89% 75.44 1004.0 0.05
23 00:53 SW 6 16.09 Light Rain OVC036 6.7 5 89% 75.49 1005.0
22 23:53 N 6 16.09 Overcast BKN036 OVC045 7.2 5 15 7.2 86% 75.49 1005.0 0.08 0.08
22 22:53 NW 7 16.09 Overcast OVC046 7.8 4.4 79% 7 75.49 1004.9
22 21:53 W 11 16.09 Overcast FEW041 BKN049 OVC070 7.8 4.4 79% 6 75.49 1005.1
22 20:53 NW 19 G 28 16.09 Light Rain SCT034 BKN042 OVC050 8.9 4.4 74% 6 75.46 1004.5
22 19:53 SE 7 16.09 Overcast OVC075 11.7 3.3 57% 75.41 1003.5
22 18:53 Calm 16.09 Overcast SCT060 OVC085 13.3 1.7 46% 75.36 1003.4
22 17:53 SW 15 16.09 Overcast SCT075 OVC095 14.4 1.1 15.6 11.7 41% 75.34 1002.9
22 16:53 SW 35 G 59 16.09 Overcast and Breezy OVC090 13.9 0.6 41% 75.34 1003.0
22 15:53 S 28 G 43 16.09 Overcast FEW060 OVC080 13.9 0 39% 75.36 1003.7
22 14:53 W 33 G 44 16.09 Mostly Cloudy and Breezy SCT070 BKN080 15 1.1 39% 75.44 1004.3
22 13:53 SW 24 16.09 Overcast FEW055 OVC070 13.9 1.1 42% 75.49 1005.0
22 12:53 SW 37 G 63 16.09 Overcast and Breezy OVC075 12.2 0.6 45% 75.51 1005.4
22 11:53 Calm 16.09 Overcast SCT049 OVC070 11.7 1.1 12.2 5 48% 75.51 1005.6
22 10:53 W 9 16.09 Overcast BKN050 OVC060 11.7 1.1 48% 75.57 1006.5
22 09:53 W 26 G 50 16.09 Light Rain OVC055 11.1 -0.6 45% 75.59 1006.9
22 08:53 SW 35 G 52 16.09 Overcast and Breezy OVC070 11.7 -1.7 40% 75.59 1006.0
22 07:53 N 7 16.09 Fair CLR 10 1.1 54% 9 75.62 1006.4
22 06:53 Calm 16.09 Mostly Cloudy BKN060 5 0 70% 75.67 1007.8
22 05:53 N 11 16.09 Overcast BKN060 OVC075 5 -1.1 8.3 3.9 65% 3 75.72 1008.1
22 04:53 NW 13 16.09 Overcast FEW080 OVC095 4.4 -1.1 68% 2 75.72 1008.0
22 03:53 Calm 16.09 Fair CLR 3.9 -1.1 70% 75.74 1008.6
22 02:53 NW 19 16.09 Overcast OVC100 4.4 -1.1 68% 1 75.77 1008.8
22 01:53 NW 13 16.09 Fair CLR 5 -1.7 62% 2 75.82 1009.7
22 00:53 NW 13 16.09 Overcast OVC095 6.7 -1.7 55% 4 75.87 1010.1
Date Time (mdt) Wind (kph) Vis. (km) Weather Sky Cond. Air Dwpt Max. Min. Relative Humidity Wind Chill (°C) Heat Index (°C) altimeter (cm) sea level (mb) 1 hr 3 hr 6 hr
6 hour
Temperature (ºC) Pressure Precipitation (cm)